GW1804 Weather Reports


time (UTC)temp
F
wind
direction
speed
knots
gust
knots
rain 1hr
in
rain 24hr
in
rain mn
in
humidity
%
barometer
mb
20260509054554 62 0 0.0 0.0 0.00 0.00 0.00 88 1014.6
20260509054032 62 0 0.0 1.7 0.00 0.00 0.00 88 1014.6
20260509053532 62 0 0.0 1.7 0.00 0.00 0.00 88 1014.7
20260509053044 62 0 0.0 0.9 0.00 0.00 0.00 88 1014.7
20260509052531 62 0 0.0 1.7 0.00 0.00 0.00 88 1014.7
20260509052031 62 0 0.0 1.7 0.00 0.00 0.00 88 1014.7
20260509051549 62 0 0.0 1.7 0.00 0.00 0.00 88 1014.8
20260509051031 62 299 0.0 1.7 0.00 0.00 0.00 88 1014.8
20260509050534 62 0 0.0 1.7 0.00 0.00 0.00 88 1014.8
20260509050047 62 0 0.0 1.7 0.00 0.00 0.00 88 1014.8
20260509045531 61 218 0.0 1.7 0.00 0.00 0.00 88 1014.8
20260509045033 61 0 0.0 1.7 0.00 0.00 0.00 88 1014.8
20260509044546 61 218 0.0 3.5 0.00 0.00 0.00 88 1014.7
20260509044031 62 218 0.9 3.5 0.00 0.00 0.00 88 1014.7
20260509043532 62 221 1.7 3.5 0.00 0.00 0.00 88 1014.7
20260509043057 62 215 0.9 2.6 0.00 0.00 0.00 88 1014.6
20260509042535 62 217 0.9 2.6 0.00 0.00 0.00 88 1014.6
20260509042035 62 251 0.0 2.6 0.00 0.00 0.00 88 1014.6
20260509041551 62 251 0.9 2.6 0.00 0.00 0.00 88 1014.6
20260509041036 62 306 0.9 2.6 0.00 0.00 0.00 88 1014.5
20260509040537 62 273 0.0 2.6 0.00 0.00 0.00 88 1014.4
20260509040049 62 0 0.9 2.6 0.00 0.00 0.00 88 1014.5
20260509035539 62 0 0.0 2.6 0.00 0.00 0.00 88 1014.4
20260509035033 62 270 0.0 1.7 0.00 0.00 0.00 88 1014.4
20260509034550 62 329 0.0 1.7 0.00 0.00 0.00 88 1014.3
20260509034031 62 0 0.0 1.7 0.00 0.00 0.00 88 1014.3
20260509033535 62 0 0.0 1.7 0.00 0.00 0.00 88 1014.2
20260509033052 62 15 0.0 2.6 0.00 0.00 0.00 88 1014.2
20260509032536 62 0 0.0 2.6 0.00 0.00 0.00 88 1014.1
20260509032035 62 309 0.9 2.6 0.00 0.00 0.00 88 1014.1
20260509031553 62 0 0.0 3.5 0.00 0.00 0.00 88 1014.1
20260509031035 62 285 0.9 3.5 0.00 0.00 0.00 87 1014.1
20260509030536 62 275 0.9 3.5 0.00 0.00 0.00 87 1014.2
20260509030045 62 276 0.9 3.5 0.00 0.00 0.00 87 1014.1
20260509025535 62 261 1.7 3.5 0.00 0.00 0.00 87 1014.1
20260509025035 62 253 0.9 5.2 0.00 0.00 0.00 87 1014.0
20260509024546 62 275 1.7 5.2 0.00 0.00 0.00 86 1014.0
20260509024036 62 261 1.7 3.5 0.00 0.00 0.00 86 1014.0
20260509023532 62 0 0.9 3.5 0.00 0.00 0.00 86 1014.0
20260509023041 62 284 0.9 4.3 0.00 0.00 0.00 86 1013.9
20260509022532 62 252 1.7 5.2 0.00 0.00 0.00 85 1013.9
20260509022035 63 323 2.6 5.2 0.00 0.00 0.00 85 1013.9
20260509021544 63 281 1.7 4.3 0.00 0.00 0.00 85 1013.8
20260509021035 63 259 1.7 5.2 0.00 0.00 0.00 84 1013.7
20260509020535 63 309 1.7 5.2 0.00 0.00 0.00 84 1013.7
20260509020047 64 299 1.7 6.1 0.00 0.00 0.00 84 1013.6
20260509015535 64 251 1.7 6.1 0.00 0.00 0.00 84 1013.6
20260509015036 64 321 1.7 3.5 0.00 0.00 0.00 83 1013.5
20260509014546 64 313 0.9 5.2 0.00 0.00 0.00 83 1013.5
20260509014035 64 320 2.6 5.2 0.00 0.00 0.00 82 1013.5
20260509013535 65 352 1.7 4.3 0.00 0.00 0.00 82 1013.5
20260509013055 65 246 1.7 4.3 0.00 0.00 0.00 81 1013.6
20260509012531 65 225 1.7 6.1 0.00 0.00 0.00 81 1013.6
20260509012031 66 271 2.6 6.1 0.00 0.00 0.00 80 1013.5
20260509011546 66 309 1.7 3.5 0.00 0.00 0.00 80 1013.5
20260509011034 66 299 1.7 7.0 0.00 0.00 0.00 79 1013.5
20260509010532 67 300 0.9 7.0 0.00 0.00 0.00 78 1013.5
20260509010047 67 288 1.7 5.2 0.00 0.00 0.00 77 1013.6
20260509005534 68 293 2.6 5.2 0.00 0.00 0.00 77 1013.5
20260509005031 68 274 0.9 5.2 0.00 0.00 0.00 77 1013.5
20260509004558 68 313 2.6 5.2 0.00 0.00 0.00 77 1013.6
20260509004032 68 221 2.6 5.2 0.00 0.00 0.00 77 1013.5
20260509003532 69 250 1.7 5.2 0.00 0.00 0.00 77 1013.5
20260509003047 68 248 0.9 5.2 0.00 0.00 0.00 77 1013.4
20260509002531 68 305 2.6 5.2 0.00 0.00 0.00 77 1013.4
20260509002032 68 273 1.7 7.0 0.00 0.00 0.00 78 1013.4
20260509001552 68 317 2.6 7.0 0.00 0.00 0.00 77 1013.5
20260509001031 68 252 2.6 7.0 0.00 0.00 0.00 76 1013.6
20260509000531 68 311 2.6 6.1 0.00 0.00 0.00 76 1013.7
20260509000049 69 309 2.6 7.0 0.00 0.00 0.00 76 1013.8
20260508235531 69 252 3.5 7.0 0.00 0.00 0.00 77 1013.8
20260508235032 69 278 3.5 7.0 0.00 0.00 0.00 77 1013.8
20260508234545 69 251 2.6 8.7 0.00 0.00 0.00 77 1013.8
20260508234033 68 315 3.5 8.7 0.00 0.00 0.00 77 1013.9
20260508233532 68 296 2.6 7.8 0.00 0.00 0.00 76 1013.8
20260508233045 68 270 2.6 8.7 0.00 0.00 0.00 77 1013.8
20260508232531 68 250 3.5 8.7 0.00 0.00 0.00 77 1013.9
20260508232032 68 304 3.5 7.8 0.00 0.00 0.00 77 1013.9
20260508231555 68 324 4.3 7.8 0.00 0.00 0.00 77 1014.0
20260508231032 68 242 3.5 7.8 0.00 0.00 0.00 77 1014.0
20260508230531 68 311 3.5 8.7 0.00 0.00 0.00 77 1014.0
20260508230051 69 302 3.5 8.7 0.00 0.00 0.00 77 1014.1
20260508225532 69 317 3.5 7.8 0.00 0.00 0.00 76 1014.1
20260508225032 69 323 3.5 8.7 0.00 0.00 0.00 77 1014.2
20260508224552 68 291 4.3 8.7 0.00 0.00 0.00 77 1014.2
20260508224034 68 286 4.3 8.7 0.00 0.00 0.00 77 1014.2
20260508223534 68 306 4.3 8.7 0.00 0.00 0.00 76 1014.2
20260508223051 69 334 4.3 9.6 0.00 0.00 0.00 76 1014.3
20260508222532 69 222 4.3 9.6 0.00 0.00 0.00 77 1014.3
20260508222032 68 317 4.3 8.7 0.00 0.00 0.00 77 1014.3
20260508221547 68 275 3.5 8.7 0.00 0.00 0.00 77 1014.4
20260508221033 68 298 4.3 11.3 0.00 0.00 0.00 77 1014.5
20260508220531 68 324 4.3 11.3 0.00 0.00 0.00 76 1014.6
20260508220046 69 304 5.2 11.3 0.00 0.00 0.00 77 1014.6
20260508215532 69 235 4.3 8.7 0.00 0.00 0.00 78 1014.6
20260508215032 68 275 5.2 8.7 0.00 0.00 0.00 77 1014.7
20260508214602 69 290 4.3 9.6 0.00 0.00 0.00 77 1014.6
20260508214038 69 269 5.2 9.6 0.00 0.00 0.00 76 1014.7
20260508213535 69 292 4.3 9.6 0.00 0.00 0.00 77 1014.7
20260508213049 69 255 4.3 8.7 0.00 0.00 0.00 77 1014.6
20260508212534 69 272 3.5 8.7 0.00 0.00 0.00 76 1014.6
20260508212035 69 250 5.2 9.6 0.00 0.00 0.00 75 1014.7
20260508211548 69 331 5.2 9.6 0.00 0.00 0.00 76 1014.6
20260508211035 69 279 5.2 8.7 0.00 0.00 0.00 76 1014.7
20260508210535 69 229 5.2 9.6 0.00 0.00 0.00 76 1014.7
20260508210049 69 298 3.5 9.6 0.00 0.00 0.00 75 1014.7
20260508205536 69 322 3.5 8.7 0.00 0.00 0.00 76 1014.7
20260508205032 69 270 4.3 7.8 0.00 0.00 0.00 75 1014.7
20260508204551 69 271 3.5 8.7 0.00 0.00 0.00 74 1014.7
20260508204034 70 257 4.3 8.7 0.00 0.00 0.00 75 1014.7
20260508203531 70 267 4.3 8.7 0.00 0.00 0.00 75 1014.7
20260508203044 70 277 3.5 8.7 0.00 0.00 0.00 76 1014.7
20260508202532 70 269 4.3 8.7 0.00 0.00 0.00 74 1014.8
20260508202035 70 306 3.5 7.8 0.00 0.00 0.00 74 1014.8
20260508201547 70 281 3.5 7.8 0.00 0.00 0.00 74 1014.8
20260508201038 70 263 4.3 7.8 0.00 0.00 0.00 74 1014.8
20260508200535 70 302 2.6 7.0 0.00 0.00 0.00 75 1014.9
20260508200050 70 281 3.5 7.0 0.00 0.00 0.00 75 1014.8
20260508195535 70 310 2.6 6.1 0.00 0.00 0.00 77 1014.8
20260508195035 69 236 2.6 7.0 0.00 0.00 0.00 76 1015.0
20260508194545 69 244 3.5 7.8 0.00 0.00 0.00 76 1015.1
20260508194035 69 311 3.5 7.8 0.00 0.00 0.00 76 1015.2
20260508193535 69 295 3.5 7.0 0.00 0.00 0.00 76 1015.3
20260508193059 69 292 2.6 6.1 0.00 0.00 0.00 76 1015.3
20260508192535 69 248 1.7 6.1 0.00 0.00 0.00 77 1015.3
20260508192038 69 270 1.7 7.0 0.00 0.00 0.00 78 1015.4
20260508191556 69 257 2.6 7.8 0.00 0.00 0.00 77 1015.4
20260508191035 69 275 3.5 7.8 0.00 0.00 0.00 78 1015.4
20260508190532 69 264 2.6 7.0 0.00 0.00 0.00 78 1015.5
20260508190105 69 276 3.5 7.0 0.00 0.00 0.00 78 1015.5
20260508185534 69 278 2.6 6.1 0.00 0.00 0.00 78 1015.5
20260508185031 69 246 1.7 6.1 0.00 0.00 0.00 78 1015.5
20260508184550 68 269 2.6 6.1 0.00 0.00 0.00 79 1015.6
20260508184035 68 257 1.7 6.1 0.00 0.00 0.00 77 1015.6
20260508183535 68 239 2.6 6.1 0.00 0.00 0.00 78 1015.7
20260508183101 68 334 2.6 6.1 0.00 0.00 0.00 78 1015.7
20260508182535 68 252 2.6 6.1 0.00 0.00 0.00 78 1015.7
20260508182035 68 281 1.7 6.1 0.00 0.00 0.00 78 1015.7
20260508181548 68 239 1.7 6.1 0.00 0.00 0.00 79 1015.8
20260508181040 68 273 2.6 6.1 0.00 0.00 0.00 80 1015.8
20260508180535 67 245 0.9 4.3 0.00 0.00 0.00 80 1015.8
20260508180057 67 0 0.9 4.3 0.00 0.00 0.00 80 1015.9
20260508175532 67 265 1.7 3.5 0.00 0.00 0.00 80 1016.0
20260508175032 66 213 0.9 3.5 0.00 0.00 0.00 80 1016.0
20260508174604 66 297 0.9 3.5 0.00 0.00 0.00 80 1016.0
20260508174034 66 273 1.7 3.5 0.00 0.00 0.00 80 1016.0
20260508173535 66 276 0.0 2.6 0.00 0.00 0.00 81 1016.0
20260508173049 65 0 0.9 2.6 0.00 0.00 0.00 81 1016.0
20260508172531 65 0 0.0 1.7 0.00 0.00 0.00 82 1016.0
20260508172037 65 0 0.0 1.7 0.00 0.00 0.00 83 1016.0
20260508171547 64 0 0.0 1.7 0.00 0.00 0.00 83 1016.1
20260508171037 64 0 0.0 1.7 0.00 0.00 0.00 84 1016.0
20260508170535 64 0 0.0 1.7 0.00 0.00 0.00 84 1016.1
20260508170046 64 0 0.0 1.7 0.00 0.00 0.00 84 1016.1
20260508165535 63 284 0.0 0.9 0.00 0.00 0.00 85 1016.1
20260508165035 63 284 0.0 0.9 0.00 0.00 0.00 85 1016.1
20260508164550 63 0 0.0 0.9 0.00 0.00 0.00 85 1016.2
20260508164035 63 0 0.0 0.9 0.00 0.00 0.00 85 1016.1
20260508163537 63 0 0.0 1.7 0.00 0.00 0.00 86 1016.2
20260508163044 62 0 0.0 1.7 0.00 0.00 0.00 87 1016.2
20260508162532 62 0 0.0 0.9 0.00 0.00 0.00 87 1016.1
20260508162033 62 0 0.0 0.9 0.00 0.00 0.00 87 1016.2
20260508161548 62 0 0.0 1.7 0.00 0.00 0.00 87 1016.2
20260508161034 62 0 0.0 1.7 0.00 0.00 0.00 87 1016.3
20260508160534 61 0 0.0 1.7 0.00 0.00 0.00 87 1016.3
20260508160052 61 282 0.0 1.7 0.00 0.00 0.00 87 1016.2
20260508155535 61 303 0.0 2.6 0.00 0.00 0.00 87 1016.3
20260508155035 61 0 0.0 2.6 0.00 0.00 0.00 88 1016.3
20260508154546 61 299 0.9 2.6 0.00 0.00 0.00 88 1016.3
20260508154034 61 310 0.0 1.7 0.00 0.00 0.00 88 1016.3
20260508153535 61 0 0.0 1.7 0.00 0.00 0.00 88 1016.2
20260508153056 61 61 0.0 1.7 0.00 0.00 0.00 88 1016.2
20260508152534 61 5 0.0 1.7 0.00 0.00 0.00 88 1016.3
20260508152034 61 294 0.0 1.7 0.00 0.00 0.00 88 1016.3
20260508151552 61 0 0.0 1.7 0.00 0.00 0.00 88 1016.3
20260508151032 61 294 0.0 1.7 0.00 0.00 0.00 88 1016.3
20260508150535 61 300 0.0 1.7 0.00 0.00 0.00 88 1016.3
20260508150050 61 0 0.0 1.7 0.00 0.00 0.00 88 1016.2
20260508145534 61 249 0.0 1.7 0.00 0.00 0.00 88 1016.2
20260508145036 61 249 0.0 1.7 0.00 0.00 0.00 88 1016.3
20260508144552 61 80 0.0 0.9 0.00 0.00 0.00 88 1016.2
20260508144035 61 0 0.0 0.0 0.00 0.00 0.00 88 1016.1
20260508143535 61 0 0.0 0.9 0.00 0.00 0.00 89 1016.2
20260508143055 61 0 0.0 0.9 0.00 0.00 0.00 89 1016.2
20260508142535 60 0 0.0 0.9 0.00 0.00 0.00 88 1016.2
20260508142035 60 0 0.0 1.7 0.00 0.00 0.00 88 1016.2
20260508141558 60 0 0.0 1.7 0.00 0.00 0.00 89 1016.1
20260508141035 60 0 0.0 1.7 0.00 0.00 0.00 89 1016.1
20260508140534 60 0 0.0 1.7 0.00 0.00 0.00 89 1016.0
20260508140051 60 0 0.0 1.7 0.00 0.00 0.00 89 1016.0
20260508135535 60 0 0.0 1.7 0.00 0.00 0.00 89 1016.0
20260508135036 60 352 0.0 1.7 0.00 0.00 0.00 89 1015.9
20260508134551 60 0 0.0 1.7 0.00 0.00 0.00 89 1015.9
20260508134035 60 0 0.0 0.9 0.00 0.00 0.00 89 1015.9
20260508133535 60 0 0.0 1.7 0.00 0.00 0.00 89 1015.9
20260508133047 60 0 0.0 2.6 0.00 0.00 0.00 89 1015.9
20260508132535 60 0 0.0 2.6 0.00 0.00 0.00 89 1015.9
20260508132034 60 0 0.0 0.9 0.00 0.00 0.00 88 1015.7
20260508131605 60 0 0.0 0.9 0.00 0.00 0.00 88 1015.7
20260508131036 60 0 0.0 0.9 0.00 0.00 0.00 88 1015.6
20260508130538 60 0 0.0 0.9 0.00 0.00 0.00 88 1015.7
20260508130048 60 0 0.0 1.7 0.00 0.00 0.00 88 1015.6
20260508125535 60 0 0.0 1.7 0.00 0.00 0.00 88 1015.6
20260508125034 60 253 0.0 1.7 0.00 0.00 0.00 88 1015.6
20260508124549 60 253 0.0 0.9 0.00 0.00 0.00 88 1015.6
20260508124036 60 0 0.0 1.7 0.00 0.00 0.00 88 1015.6
20260508123533 60 0 0.0 1.7 0.00 0.00 0.00 88 1015.5
20260508123106 60 5 0.0 0.9 0.00 0.00 0.00 88 1015.5
20260508122534 60 0 0.0 0.9 0.00 0.00 0.00 88 1015.5
20260508122031 60 0 0.0 1.7 0.00 0.00 0.00 88 1015.5
20260508121553 60 0 0.0 1.7 0.00 0.00 0.00 88 1015.5
20260508121031 60 0 0.0 1.7 0.00 0.00 0.00 88 1015.5
20260508120534 60 0 0.0 0.9 0.00 0.00 0.00 88 1015.5
20260508120107 60 0 0.0 1.7 0.00 0.00 0.00 88 1015.5
20260508115531 60 0 0.0 1.7 0.00 0.00 0.00 88 1015.4
20260508115034 60 0 0.0 1.7 0.00 0.00 0.00 88 1015.4
20260508114557 61 0 0.0 0.9 0.00 0.00 0.00 88 1015.4
20260508114037 61 0 0.0 0.9 0.00 0.00 0.00 88 1015.4
20260508113535 61 0 0.0 0.9 0.00 0.00 0.00 88 1015.4
20260508113108 61 0 0.0 0.9 0.00 0.00 0.00 88 1015.4
20260508112536 60 0 0.0 0.9 0.00 0.00 0.00 88 1015.4
20260508112033 60 0 0.0 0.9 0.00 0.00 0.00 88 1015.4
20260508111550 61 0 0.0 1.7 0.00 0.00 0.00 88 1015.5
20260508111034 61 0 0.0 1.7 0.00 0.00 0.00 88 1015.5
20260508110535 61 0 0.0 1.7 0.00 0.00 0.00 88 1015.4
20260508110056 61 0 0.0 1.7 0.00 0.00 0.00 88 1015.4
20260508105534 61 223 0.0 1.7 0.00 0.00 0.00 88 1015.3
20260508105034 61 223 0.0 1.7 0.00 0.00 0.00 88 1015.4
20260508104551 61 0 0.0 1.7 0.00 0.00 0.00 88 1015.4
20260508104032 61 0 0.0 0.9 0.00 0.00 0.00 88 1015.4
20260508103532 61 0 0.0 0.9 0.00 0.00 0.00 88 1015.4
20260508103059 61 0 0.0 0.9 0.00 0.00 0.00 88 1015.4
20260508102533 61 0 0.0 1.7 0.00 0.00 0.00 88 1015.5
20260508102032 61 223 0.0 1.7 0.00 0.00 0.00 88 1015.5
20260508101553 61 223 0.0 0.0 0.00 0.00 0.00 88 1015.6
20260508101034 61 0 0.0 0.0 0.00 0.00 0.00 88 1015.6
20260508100532 61 0 0.0 0.9 0.00 0.00 0.00 88 1015.6
20260508100045 61 0 0.0 2.6 0.00 0.00 0.00 88 1015.6
20260508095533 61 0 0.0 3.5 0.00 0.00 0.00 88 1015.6
20260508095038 61 223 0.9 3.5 0.00 0.00 0.00 88 1015.6
20260508094546 61 221 0.0 1.7 0.00 0.00 0.00 88 1015.6
20260508094032 61 0 0.0 0.9 0.00 0.00 0.00 88 1015.6
20260508093532 61 0 0.0 0.9 0.00 0.00 0.00 88 1015.6
20260508093045 61 0 0.0 0.9 0.00 0.00 0.00 88 1015.6
20260508092532 61 0 0.0 1.7 0.00 0.00 0.00 88 1015.6
20260508092032 61 0 0.0 1.7 0.00 0.00 0.00 88 1015.5
20260508091542 61 0 0.0 1.7 0.00 0.00 0.00 88 1015.6
20260508091032 61 0 0.0 1.7 0.00 0.00 0.00 88 1015.5
20260508090533 61 261 0.0 1.7 0.00 0.00 0.00 88 1015.6
20260508090050 61 0 0.0 1.7 0.00 0.00 0.00 88 1015.7
20260508085532 61 0 0.0 1.7 0.00 0.00 0.00 88 1015.7
20260508085031 61 200 0.0 1.7 0.00 0.00 0.00 88 1015.7
20260508084543 61 0 0.0 0.0 0.00 0.00 0.00 88 1015.8
20260508084034 61 0 0.0 0.9 0.00 0.00 0.00 88 1015.7
20260508083532 61 0 0.0 0.9 0.00 0.00 0.00 88 1015.9
20260508083048 61 0 0.0 0.9 0.00 0.00 0.00 88 1016.0
20260508082534 61 0 0.0 0.0 0.00 0.00 0.00 88 1016.0
20260508082033 61 0 0.0 0.0 0.00 0.00 0.00 88 1016.0
20260508081546 61 0 0.0 0.9 0.00 0.00 0.00 88 1016.0
20260508081031 61 0 0.0 0.9 0.00 0.00 0.00 88 1016.1
20260508080532 61 0 0.0 0.9 0.00 0.00 0.00 88 1016.1
20260508080045 61 0 0.0 0.9 0.00 0.00 0.00 88 1016.1
20260508075532 61 0 0.0 0.9 0.00 0.00 0.00 88 1016.1
20260508075033 61 0 0.0 0.9 0.00 0.00 0.00 89 1016.1
20260508074547 61 0 0.0 0.9 0.00 0.00 0.00 88 1016.2
20260508074032 61 0 0.0 1.7 0.00 0.00 0.00 89 1016.2
20260508073532 61 0 0.0 1.7 0.00 0.00 0.00 89 1016.1
20260508073053 61 0 0.0 1.7 0.00 0.00 0.00 89 1016.2
20260508072534 61 0 0.0 0.9 0.00 0.00 0.00 89 1016.3
20260508072034 61 0 0.0 0.9 0.00 0.00 0.00 89 1016.3
20260508071543 61 0 0.0 0.9 0.00 0.00 0.00 89 1016.3
20260508071032 61 0 0.0 3.5 0.00 0.00 0.00 89 1016.2
20260508070533 61 0 0.0 3.5 0.00 0.00 0.00 89 1016.3
20260508070051 61 219 1.7 3.5 0.00 0.00 0.00 89 1016.3
20260508065533 61 226 0.9 3.5 0.00 0.00 0.00 88 1016.3
20260508065035 61 221 0.0 2.6 0.00 0.00 0.00 89 1016.4
20260508064608 61 217 0.0 0.9 0.00 0.00 0.00 89 1016.4
20260508064032 61 217 0.0 4.3 0.00 0.00 0.00 88 1016.3
20260508063532 61 217 0.0 4.3 0.00 0.00 0.00 88 1016.4
20260508063059 61 214 0.9 3.5 0.00 0.00 0.00 88 1016.4
20260508062533 61 225 0.9 3.5 0.00 0.00 0.00 89 1016.4
20260508062035 61 0 0.0 7.0 0.00 0.00 0.00 89 1016.4
20260508061547 61 223 0.9 7.0 0.00 0.00 0.00 88 1016.4
20260508061032 61 199 0.9 7.0 0.00 0.00 0.00 88 1016.4
20260508060532 61 215 0.9 3.5 0.00 0.00 0.00 88 1016.5
20260508060046 61 219 1.7 3.5 0.00 0.00 0.00 88 1016.5
20260508055533 61 240 0.9 2.6 0.00 0.00 0.00 88 1016.5
20260508055032 61 0 0.9 2.6 0.00 0.00 0.00 88 1016.4